| time (UTC) | temp F | wind direction | speed MPH | gust MPH | rain 1hr in | rain 24hr in | rain mn in | humidity % | barometer mb |
| 20260901164515 | 62 | 315 | 4.0 | 7.0 | 0.00 | 0.00 | 0.00 | 75 | 1010.1 |
| 20260901163515 | 61 | 270 | 4.0 | 13.0 | 0.00 | 0.00 | 0.00 | 75 | 1010.1 |
| 20260901162516 | 61 | 203 | 2.0 | 6.0 | 0.00 | 0.00 | 0.00 | 77 | 1010.0 |
| 20260901161516 | 61 | 270 | 4.0 | 11.0 | 0.00 | 0.00 | 0.00 | 77 | 1010.1 |
| 20260901160515 | 61 | 293 | 5.0 | 14.0 | 0.00 | 0.00 | 0.00 | 76 | 1009.9 |
| 20260901155536 | 60 | 180 | 2.0 | 7.0 | 0.00 | 0.00 | 0.00 | 77 | 1009.8 |
| 20260901154515 | 60 | 338 | 2.0 | 5.0 | 0.00 | 0.00 | 0.00 | 78 | 1009.8 |
| 20260901153521 | 60 | 293 | 4.0 | 10.0 | 0.00 | 0.00 | 0.00 | 78 | 1009.8 |
| 20260901152548 | 60 | 270 | 4.0 | 11.0 | 0.00 | 0.00 | 0.00 | 79 | 1009.8 |
| 20260901151518 | 59 | 293 | 4.0 | 14.0 | 0.00 | 0.00 | 0.00 | 79 | 1009.9 |
| 20260901150522 | 59 | 293 | 4.0 | 13.0 | 0.00 | 0.00 | 0.00 | 79 | 1009.9 |
| 20260901145521 | 59 | 113 | 3.0 | 7.0 | 0.00 | 0.00 | 0.00 | 79 | 1009.7 |
| 20260901144515 | 59 | 135 | 2.0 | 6.0 | 0.00 | 0.00 | 0.00 | 79 | 1009.8 |
| 20260901143516 | 59 | 203 | 3.0 | 11.0 | 0.00 | 0.00 | 0.00 | 79 | 1009.9 |
| 20260901142537 | 59 | 225 | 3.0 | 11.0 | 0.00 | 0.00 | 0.00 | 79 | 1009.7 |
| 20260901141523 | 59 | 248 | 1.0 | 7.0 | 0.00 | 0.00 | 0.00 | 79 | 1009.7 |
| 20260901140523 | 59 | 270 | 3.0 | 7.0 | 0.00 | 0.00 | 0.00 | 79 | 1009.7 |
| 20260901135517 | 59 | 203 | 3.0 | 14.0 | 0.00 | 0.00 | 0.00 | 79 | 1009.6 |
| 20260901134517 | 59 | 293 | 3.0 | 7.0 | 0.00 | 0.00 | 0.00 | 79 | 1009.5 |
| 20260901133517 | 60 | 270 | 5.0 | 16.0 | 0.00 | 0.00 | 0.00 | 79 | 1009.5 |
| 20260901132517 | 60 | 293 | 4.0 | 15.0 | 0.00 | 0.00 | 0.00 | 78 | 1009.5 |
| 20260901131522 | 60 | 270 | 5.0 | 9.0 | 0.00 | 0.00 | 0.00 | 78 | 1009.3 |
| 20260901130517 | 60 | 180 | 3.0 | 14.0 | 0.00 | 0.00 | 0.00 | 77 | 1009.2 |
| 20260901125547 | 60 | 293 | 2.0 | 5.0 | 0.00 | 0.00 | 0.00 | 77 | 1008.9 |
| 20260901124523 | 61 | 270 | 4.0 | 12.0 | 0.00 | 0.00 | 0.00 | 77 | 1008.9 |
| 20260901123515 | 60 | 158 | 4.0 | 13.0 | 0.00 | 0.00 | 0.00 | 77 | 1008.8 |
| 20260901122519 | 61 | 270 | 4.0 | 11.0 | 0.00 | 0.00 | 0.00 | 76 | 1008.8 |
| 20260901121517 | 61 | 315 | 5.0 | 17.0 | 0.00 | 0.00 | 0.00 | 76 | 1008.8 |
| 20260901120522 | 61 | 248 | 3.0 | 6.0 | 0.00 | 0.00 | 0.00 | 76 | 1008.9 |
| 20260901115517 | 61 | 180 | 3.0 | 6.0 | 0.00 | 0.00 | 0.00 | 75 | 1008.9 |
| 20260901114517 | 62 | 270 | 4.0 | 12.0 | 0.00 | 0.00 | 0.00 | 74 | 1009.0 |
| 20260901113523 | 62 | 158 | 4.0 | 12.0 | 0.00 | 0.00 | 0.00 | 74 | 1008.8 |
| 20260901112517 | 62 | 270 | 4.0 | 13.0 | 0.00 | 0.00 | 0.00 | 73 | 1008.8 |
| 20260901111517 | 62 | 248 | 2.0 | 7.0 | 0.00 | 0.00 | 0.00 | 73 | 1008.9 |
| 20260901110516 | 63 | 270 | 2.0 | 7.0 | 0.00 | 0.00 | 0.00 | 72 | 1008.8 |
| 20260901105517 | 63 | 180 | 3.0 | 14.0 | 0.00 | 0.00 | 0.00 | 72 | 1008.7 |
| 20260901104622 | 63 | 338 | 1.0 | 3.0 | 0.00 | 0.00 | 0.00 | 71 | 1008.9 |
| 20260901103516 | 64 | 248 | 2.0 | 5.0 | 0.00 | 0.00 | 0.00 | 70 | 1008.8 |
| 20260901102516 | 64 | 225 | 2.0 | 10.0 | 0.00 | 0.00 | 0.00 | 70 | 1008.9 |
| 20260901101537 | 64 | 180 | 2.0 | 5.0 | 0.00 | 0.00 | 0.00 | 69 | 1008.9 |
| 20260901100517 | 64 | 225 | 3.0 | 10.0 | 0.00 | 0.00 | 0.00 | 69 | 1008.8 |
| 20260901095517 | 65 | 158 | 1.0 | 5.0 | 0.00 | 0.00 | 0.00 | 68 | 1008.8 |
| 20260901094516 | 65 | 158 | 2.0 | 7.0 | 0.00 | 0.00 | 0.00 | 67 | 1008.7 |
| 20260901093521 | 65 | 225 | 3.0 | 14.0 | 0.00 | 0.00 | 0.00 | 67 | 1008.7 |
| 20260901092523 | 66 | 248 | 2.0 | 5.0 | 0.00 | 0.00 | 0.00 | 66 | 1008.8 |
| 20260901091517 | 66 | 158 | 2.0 | 5.0 | 0.00 | 0.00 | 0.00 | 65 | 1008.6 |
| 20260901090523 | 67 | 293 | 4.0 | 8.0 | 0.00 | 0.00 | 0.00 | 64 | 1008.4 |
| 20260901085519 | 67 | 248 | 2.0 | 10.0 | 0.00 | 0.00 | 0.00 | 63 | 1008.4 |
| 20260901084540 | 67 | 270 | 3.0 | 7.0 | 0.00 | 0.00 | 0.00 | 62 | 1008.4 |
| 20260901083521 | 68 | 248 | 4.0 | 11.0 | 0.00 | 0.00 | 0.00 | 61 | 1008.6 |
| 20260901082516 | 67 | 270 | 3.0 | 7.0 | 0.00 | 0.00 | 0.00 | 63 | 1008.7 |
| 20260901081516 | 64 | 203 | 2.0 | 6.0 | 0.00 | 0.00 | 0.00 | 66 | 1008.5 |
| 20260901080516 | 61 | 248 | 2.0 | 5.0 | 0.00 | 0.00 | 0.00 | 67 | 1008.5 |
| 20260901075516 | 58 | 203 | 1.0 | 3.0 | 0.00 | 0.00 | 0.00 | 73 | 1008.3 |
| 20260901074523 | 58 | 0.0 | 0.0 | 0.00 | 0.00 | 0.00 | 73 | 1008.2 | |
| 20260901073522 | 59 | 0.0 | 0.0 | 0.00 | 0.00 | 0.00 | 72 | 1008.2 | |
| 20260901072523 | 58 | 0.0 | 0.0 | 0.00 | 0.00 | 0.00 | 72 | 1008.1 | |
| 20260901071516 | 59 | 0.0 | 0.0 | 0.00 | 0.00 | 0.00 | 71 | 1008.0 | |
| 20260901070522 | 59 | 0.0 | 0.0 | 0.00 | 0.00 | 0.00 | 70 | 1008.0 | |
| 20260901065515 | 59 | 0.0 | 0.0 | 0.00 | 0.00 | 0.00 | 70 | 1008.0 | |
| 20260901064516 | 59 | 0.0 | 0.0 | 0.00 | 0.00 | 0.00 | 69 | 1007.9 | |
| 20260901063521 | 60 | 0.0 | 0.0 | 0.00 | 0.00 | 0.00 | 67 | 1008.0 | |
| 20260901062522 | 60 | 0.0 | 0.0 | 0.00 | 0.00 | 0.00 | 66 | 1008.0 | |
| 20260901061522 | 61 | 0.0 | 0.0 | 0.00 | 0.00 | 0.00 | 66 | 1008.1 | |
| 20260901060523 | 61 | 0.0 | 0.0 | 0.00 | 0.00 | 0.00 | 65 | 1008.2 | |
| 20260901055522 | 61 | 0.0 | 0.0 | 0.00 | 0.00 | 0.00 | 66 | 1007.9 | |
| 20260901054516 | 61 | 0.0 | 0.0 | 0.00 | 0.00 | 0.00 | 65 | 1007.9 | |
| 20260901053515 | 62 | 0.0 | 0.0 | 0.00 | 0.00 | 0.00 | 65 | 1008.0 | |
| 20260901052516 | 62 | 0.0 | 0.0 | 0.00 | 0.00 | 0.00 | 64 | 1007.9 | |
| 20260901051515 | 63 | 0.0 | 0.0 | 0.00 | 0.00 | 0.00 | 62 | 1007.9 | |
| 20260901050521 | 63 | 0.0 | 0.0 | 0.00 | 0.00 | 0.00 | 60 | 1007.9 | |
| 20260901045546 | 65 | 0.0 | 0.0 | 0.00 | 0.00 | 0.00 | 60 | 1007.9 | |
| 20260901044521 | 66 | 0.0 | 0.0 | 0.00 | 0.00 | 0.00 | 54 | 1007.9 | |
| 20260901043522 | 66 | 0.0 | 0.0 | 0.00 | 0.00 | 0.00 | 52 | 1007.7 | |
| 20260901042516 | 65 | 0.0 | 0.0 | 0.00 | 0.00 | 0.00 | 53 | 1007.5 | |
| 20260901041515 | 65 | 0.0 | 0.0 | 0.00 | 0.00 | 0.00 | 56 | 1007.4 | |
| 20260901040518 | 66 | 0.0 | 0.0 | 0.00 | 0.00 | 0.00 | 55 | 1007.4 | |
| 20260901035521 | 67 | 0.0 | 2.0 | 0.00 | 0.00 | 0.00 | 51 | 1007.2 | |
| 20260901034515 | 67 | 225 | 1.0 | 2.0 | 0.00 | 0.00 | 0.00 | 51 | 1007.1 |
| 20260901033516 | 66 | 0.0 | 0.0 | 0.00 | 0.00 | 0.00 | 55 | 1006.9 | |
| 20260901033015 | 67 | 0.0 | 0.0 | 0.00 | 0.00 | 0.00 | 54 | 1006.8 | |
| 20260901032021 | 68 | 0.0 | 0.0 | 0.00 | 0.00 | 0.00 | 52 | 1006.6 | |
| 20260901031016 | 68 | 0.0 | 0.0 | 0.00 | 0.00 | 0.00 | 50 | 1006.6 | |
| 20260901030036 | 68 | 0.0 | 0.0 | 0.00 | 0.00 | 0.00 | 52 | 1006.8 | |
| 20260901025021 | 69 | 0.0 | 0.0 | 0.00 | 0.00 | 0.00 | 47 | 1006.6 | |
| 20260901024015 | 70 | 180 | 1.0 | 1.0 | 0.00 | 0.00 | 0.00 | 46 | 1006.5 |
| 20260901023017 | 71 | 180 | 1.0 | 2.0 | 0.00 | 0.00 | 0.00 | 45 | 1006.3 |
| 20260901022023 | 71 | 180 | 1.0 | 2.0 | 0.00 | 0.00 | 0.00 | 45 | 1006.2 |
| 20260901021017 | 72 | 180 | 1.0 | 2.0 | 0.00 | 0.00 | 0.00 | 43 | 1006.2 |
| 20260901020023 | 73 | 180 | 1.0 | 2.0 | 0.00 | 0.00 | 0.00 | 44 | 1006.3 |
| 20260901015023 | 75 | 180 | 1.0 | 2.0 | 0.00 | 0.00 | 0.00 | 44 | 1006.3 |
| 20260901014017 | 76 | 0.0 | 1.0 | 0.00 | 0.00 | 0.00 | 39 | 1006.4 | |
| 20260901013019 | 79 | 0.0 | 0.0 | 0.00 | 0.00 | 0.00 | 34 | 1006.6 | |
| 20260901012037 | 82 | 0.0 | 1.0 | 0.00 | 0.00 | 0.00 | 28 | 1006.6 | |
| 20260901011022 | 82 | 0.0 | 1.0 | 0.00 | 0.00 | 0.00 | 29 | 1006.7 | |
| 20260901010017 | 82 | 0.0 | 2.0 | 0.00 | 0.00 | 0.00 | 28 | 1006.7 | |
| 20260901005023 | 83 | 225 | 1.0 | 2.0 | 0.00 | 0.00 | 0.00 | 23 | 1006.8 |
| 20260901004017 | 84 | 0.0 | 2.0 | 0.00 | 0.00 | 0.00 | 27 | 1007.0 | |
| 20260901003023 | 84 | 0.0 | 1.0 | 0.00 | 0.00 | 0.00 | 28 | 1007.1 | |
| 20260901002017 | 85 | 225 | 1.0 | 2.0 | 0.00 | 0.00 | 0.00 | 21 | 1007.2 |
| 20260901001024 | 85 | 45 | 1.0 | 2.0 | 0.00 | 0.00 | 0.00 | 24 | 1007.2 |
| 20260901000023 | 85 | 293 | 2.0 | 4.0 | 0.00 | 0.00 | 0.00 | 24 | 1007.2 |
| 20260831235020 | 85 | 45 | 1.0 | 2.0 | 0.00 | 0.00 | 0.00 | 27 | 1007.4 |
| 20260831234022 | 86 | 45 | 1.0 | 2.0 | 0.00 | 0.00 | 0.00 | 22 | 1007.5 |
| 20260831233016 | 85 | 45 | 2.0 | 4.0 | 0.00 | 0.00 | 0.00 | 24 | 1007.6 |
| 20260831232022 | 86 | 113 | 1.0 | 3.0 | 0.00 | 0.00 | 0.00 | 23 | 1007.9 |
| 20260831231019 | 85 | 68 | 2.0 | 4.0 | 0.00 | 0.00 | 0.00 | 23 | 1007.9 |
| 20260831230016 | 85 | 158 | 1.0 | 2.0 | 0.00 | 0.00 | 0.00 | 24 | 1008.2 |
| 20260831225016 | 86 | 135 | 1.0 | 4.0 | 0.00 | 0.00 | 0.00 | 24 | 1008.3 |
| 20260831224023 | 84 | 135 | 1.0 | 3.0 | 0.00 | 0.00 | 0.00 | 25 | 1008.3 |
| 20260831223016 | 84 | 135 | 2.0 | 3.0 | 0.00 | 0.00 | 0.00 | 25 | 1008.6 |
| 20260831222036 | 84 | 180 | 1.0 | 5.0 | 0.00 | 0.00 | 0.00 | 25 | 1008.8 |
| 20260831221021 | 84 | 158 | 1.0 | 3.0 | 0.00 | 0.00 | 0.00 | 28 | 1008.9 |
| 20260831220016 | 84 | 90 | 1.0 | 4.0 | 0.00 | 0.00 | 0.00 | 27 | 1009.0 |
| 20260831215017 | 83 | 45 | 2.0 | 5.0 | 0.00 | 0.00 | 0.00 | 28 | 1009.3 |
| 20260831214022 | 83 | 90 | 3.0 | 6.0 | 0.00 | 0.00 | 0.00 | 26 | 1009.4 |
| 20260831213043 | 83 | 45 | 2.0 | 5.0 | 0.00 | 0.00 | 0.00 | 28 | 1009.5 |
| 20260831212036 | 83 | 135 | 2.0 | 4.0 | 0.00 | 0.00 | 0.00 | 28 | 1009.8 |
| 20260831211022 | 83 | 90 | 2.0 | 7.0 | 0.00 | 0.00 | 0.00 | 27 | 1010.0 |
| 20260831210015 | 82 | 90 | 2.0 | 5.0 | 0.00 | 0.00 | 0.00 | 29 | 1010.0 |
| 20260831205017 | 82 | 68 | 3.0 | 6.0 | 0.00 | 0.00 | 0.00 | 30 | 1010.3 |
| 20260831204017 | 81 | 135 | 2.0 | 7.0 | 0.00 | 0.00 | 0.00 | 31 | 1010.3 |
| 20260831203036 | 81 | 90 | 2.0 | 5.0 | 0.00 | 0.00 | 0.00 | 31 | 1010.5 |
| 20260831202022 | 81 | 113 | 2.0 | 5.0 | 0.00 | 0.00 | 0.00 | 32 | 1010.7 |
| 20260831201048 | 80 | 135 | 2.0 | 6.0 | 0.00 | 0.00 | 0.00 | 32 | 1010.9 |
| 20260831200048 | 80 | 135 | 2.0 | 6.0 | 0.00 | 0.00 | 0.00 | 33 | 1011.2 |
| 20260831195016 | 78 | 135 | 3.0 | 6.0 | 0.00 | 0.00 | 0.00 | 34 | 1011.2 |
| 20260831194016 | 79 | 68 | 3.0 | 6.0 | 0.00 | 0.00 | 0.00 | 33 | 1011.6 |
| 20260831193016 | 78 | 90 | 4.0 | 10.0 | 0.00 | 0.00 | 0.00 | 34 | 1011.6 |
| 20260831192016 | 77 | 45 | 3.0 | 7.0 | 0.00 | 0.00 | 0.00 | 35 | 1011.8 |
| 20260831191016 | 77 | 90 | 3.0 | 7.0 | 0.00 | 0.00 | 0.00 | 36 | 1012.1 |
| 20260831190016 | 76 | 113 | 2.0 | 4.0 | 0.00 | 0.00 | 0.00 | 40 | 1012.3 |
| 20260831185016 | 75 | 23 | 2.0 | 5.0 | 0.00 | 0.00 | 0.00 | 42 | 1012.3 |
| 20260831184117 | 74 | 68 | 2.0 | 6.0 | 0.00 | 0.00 | 0.00 | 45 | 1012.5 |
| 20260831183016 | 74 | 90 | 3.0 | 6.0 | 0.00 | 0.00 | 0.00 | 43 | 1012.7 |
| 20260831182016 | 74 | 23 | 2.0 | 6.0 | 0.00 | 0.00 | 0.00 | 45 | 1013.0 |
| 20260831181022 | 72 | 315 | 3.0 | 7.0 | 0.00 | 0.00 | 0.00 | 47 | 1013.1 |
| 20260831180046 | 70 | 23 | 3.0 | 7.0 | 0.00 | 0.00 | 0.00 | 52 | 1013.2 |
| 20260831175016 | 70 | 338 | 2.0 | 5.0 | 0.00 | 0.00 | 0.00 | 57 | 1013.3 |
| 20260831174016 | 69 | 45 | 2.0 | 6.0 | 0.00 | 0.00 | 0.00 | 58 | 1013.4 |
| 20260831173015 | 68 | 45 | 2.0 | 4.0 | 0.00 | 0.00 | 0.00 | 61 | 1013.5 |
| 20260831172023 | 66 | 23 | 2.0 | 5.0 | 0.00 | 0.00 | 0.00 | 66 | 1013.4 |
| 20260831171022 | 66 | 23 | 2.0 | 4.0 | 0.00 | 0.00 | 0.00 | 64 | 1013.5 |
| 20260831170017 | 64 | 90 | 1.0 | 3.0 | 0.00 | 0.00 | 0.00 | 65 | 1013.6 |
| 20260831165016 | 64 | 68 | 1.0 | 3.0 | 0.00 | 0.00 | 0.00 | 66 | 1013.7 |